Skip Page Navigation
NASA JPL Caltech
NASA Logo - Jet Propulsion Laboratory + View the NASA Portal
+ Center for Near-Earth Object Studies
JPL Home Earth Solar System Stars & Galaxies Technology
JPL Solar System Dynamics
BODIES ORBITS EPHEMERIDES TOOLS PHYSICAL DATA DISCOVERY FAQ SITE MAP
JPL Small-Body Database Browser
Search: [ help ]  
233073 (2005 JP106)
Classification: Main-belt Asteroid          SPK-ID: 2233073
Ephemeris | Orbit Diagram | Orbital Elements | Mission Design | Physical Parameters | Discovery Circumstances | Close-Approach Data ]

[ show orbit diagram ]
Orbital Elements at Epoch 2459000.5 (2020-May-31.0) TDB
Reference: JPL 15 (heliocentric ecliptic J2000)
 Element Value Uncertainty (1-sigma)   Units 
e .1460311022798194 1.0943e-07  
a 3.169987150537443 5.1137e-08 au
q 2.707070432731596 3.6975e-07 au
i 22.0669259030518 8.1404e-06 deg
node 335.4663439553909 1.5906e-05 deg
peri 185.5756899007704 2.709e-05 deg
M 277.5340762019831 2.1127e-05 deg
tp 2459472.733407308214
(2021-Sep-15.23340731)
0.00012498 TDB
period 2061.506362886886
5.64
4.9883e-05
1.366e-07
d
yr
n .1746295846964374 4.2256e-09 deg/d
Q 3.63290386834329 5.8605e-08 au
  Orbit Determination Parameters
   # obs. used (total)      322  
   data-arc span      5696 days (15.59 yr)  
   first obs. used      2005-03-18  
   last obs. used      2020-10-21  
   planetary ephem.      DE431  
   SB-pert. ephem.      SB431-N16  
   condition code      0  
   norm. resid. RMS      .57151  
   source      ORB  
   producer      Otto Matic  
   solution date      2020-Nov-12 01:55:27  

Additional Information
 Earth MOID = 1.71694 au 
 Jupiter MOID = 1.3724 au 
 T_jup = 3.073 
[ show covariance matrix ]

Ephemeris | Orbit Diagram | Orbital Elements | Mission Design | Physical Parameters | Discovery Circumstances | Close-Approach Data ]

Physical Parameter Table
Parameter Symbol Value Units Sigma Reference Notes
absolute magnitude H 15.0   n/a MPO454685  

233073 (2005 JP106)          Discovered 2005-May-12 by NEAT at Palomar
Reference: 20100228/Numbers.arcLast Updated: 2010-03-03

[ show close-approach data ]
Alternate Designations
 2005 JP106 = 2007 RH27 
Ephemeris | Orbit Diagram | Orbital Elements | Mission Design | Physical Parameters | Discovery Circumstances | Close-Approach Data ]
ABOUT SSD CREDITS/AWARDS PRIVACY/COPYRIGHT GLOSSARY LINKS
FirstGov 2020-Nov-29 15:05 UT
(server date/time)  
NASA Home Page
Site Manager:   Ryan S. Park
Webmaster  Alan B. Chamberlin